Weather in Silver City

United States     32°46′09″N   108°16′28″W
temp.,
°C
wind,
m/s
gust,
m/s
humid.,
%
clouds,
%
prec.,
mm/h
press.,
hPa
HPBL,
m
16 may, sun
sun1600:00+16wsw57260 0.0 1011103
03:00+14w59250 0.0 1012131
06:00+11wnw33310 0.0 101327
09:00+17w45200 0.0 1014874
12:00+21wsw66120 0.0 10111655
15:00+24wsw9990 0.0 10092454
18:00+23wsw912100 0.0 10073267
21:00+18wsw815130 0.0 1010384
17 may, mon
mon1700:00+13w815240 0.0 1012343
03:00+11wnw511350 0.0 1012215
06:00+8nnw22450 0.0 101211
09:00+14wnw46270 0.0 10121496
12:00+18wsw68170 0.0 10102236
15:00+20w911160 0.0 10082808
18:00+19w89165 0.0 10073010
21:00+14wnw59261 0.0 1010139
18 may, tue
tue1800:00+12wnw46410 0.0 1011100
03:00+10nw45491 0.0 101165
06:00+9nw44540 0.0 101242
09:00+15wnw79353 0.0 1011917
12:00+20wnw88246 0.0 10092708
15:00+22w1091979 0.0 10063300
18:00+20nw11112295 0.0 10072926
21:00+15nw3845100 0.1 1010313
19 may, wed
wed1900:00+14wnw474657 0.1 1011101
03:00+13wnw464892 0.0 101099
06:00+12wnw46556 0.0 101188
09:00+18wnw812380 0.0 1011920
12:00+23wnw88260 0.0 10101982
15:00+25w99215 0.0 10072820
18:00+24wnw89205 0.0 10063185
21:00+19nw44284 0.0 100937
20 may, thu
thu2000:00+16nw33315 0.0 101020
03:00+14nw22350 0.0 101112
06:00+13nnw2238100 0.0 101210
09:00+19w1228100 0.0 1012518
12:00+22s5922100 0.0 10111879
15:00+23ssw81017100 0.0 10092774
18:00+24sw591798 0.0 10063193
21:00+18nw3323100 0.0 100813